Stations météo

réclame
Mon MeteoGroup
Socoa, France (7600): Température de l'air & dewpoint: 17.10.2018 12:00:00 - 23.10.2018 12:00:00 (CEST)Socoa, France (7600): Vitesse du vent & gusts: 17.10.2018 12:00:00 - 23.10.2018 12:00:00 (CEST)Socoa, France (7600): Direction du vent: 17.10.2018 12:00:00 - 23.10.2018 12:00:00 (CEST)Socoa, France (7600): reduced air pressure: 17.10.2018 12:00:00 - 23.10.2018 12:00:00 (CEST)Socoa, France (7600): visibility: 17.10.2018 12:00:00 - 23.10.2018 12:00:00 (CEST)Socoa, France (7600): Quantités de précipitations: 17.10.2018 12:00:00 - 23.10.2018 12:00:00 (CEST)
Date & Time tt [°C] td [°C] ff [km/h] ff [knt] fx [km/h] fx [knt] dd ppp [hPa] vv [km] rr [mm]
23.10.2018 12:00:00 15,7 10,7 12 6 21 11 NNW 1031,8 - 0,0
23.10.2018 11:00:00 14,2 11,0 7 4 11 6 WNW 1031,6 12 0,0
23.10.2018 10:00:00 12,4 11,5 2 1 10 6 NNE 1031,6 - 0,0
23.10.2018 09:00:00 9,7 8,8 5 3 10 5 WSW 1030,9 - 0,0
23.10.2018 08:00:00 9,2 7,8 0 0 5 3 N 1030,1 - 0,0
23.10.2018 07:00:00 10,1 8,9 5 3 9 5 S 1029,9 - 0,0
23.10.2018 06:00:00 10,7 9,3 5 3 16 8 ESE 1030,0 - 0,0
23.10.2018 05:00:00 12,1 10,8 10 5 24 13 E 1030,0 - 0,0
23.10.2018 04:00:00 11,3 9,7 9 5 16 8 SW 1029,6 - 0,0
23.10.2018 03:00:00 11,2 9,5 7 4 11 6 S 1029,6 - 0,0
23.10.2018 02:00:00 11,9 9,8 10 5 13 7 S 1029,8 18 0,0
23.10.2018 01:00:00 13,0 10,4 11 6 24 13 SSW 1030,0 - 0,0
23.10.2018 00:00:00 13,1 10,3 17 9 23 12 SSW 1030,0 - 0,0
22.10.2018 23:00:00 13,4 10,2 16 8 25 13 SSW 1030,0 18 0,0
22.10.2018 22:00:00 13,3 9,9 17 9 23 12 SW 1029,7 - 0,0
22.10.2018 21:00:00 13,3 9,7 16 9 21 11 SW 1029,5 - 0,0
22.10.2018 20:00:00 14,2 10,0 16 9 23 12 SW 1029,0 20 0,0
22.10.2018 19:00:00 15,2 10,0 13 7 25 13 WSW 1028,5 - 0,0
22.10.2018 18:00:00 16,1 10,4 17 9 31 17 WNW 1028,3 - 0,0
22.10.2018 17:00:00 16,8 10,6 23 12 34 18 NW 1027,7 16 0,0
22.10.2018 16:00:00 16,5 11,0 21 12 32 17 WNW 1027,2 - 0,0
22.10.2018 15:00:00 17,9 11,7 23 12 32 18 WNW 1027,3 - 0,0
22.10.2018 14:00:00 18,0 11,8 20 11 - - WNW 1027,5 - 0,0
22.10.2018 13:00:00 18,6 12,3 18 10 26 14 NW 1027,6 - 0,0
22.10.2018 12:00:00 18,1 12,5 18 10 29 16 NW 1027,2 - 0,0
22.10.2018 11:00:00 17,0 12,5 22 12 31 17 WNW 1027,2 16 0,0
22.10.2018 10:00:00 16,3 13,0 22 12 30 16 WNW 1026,4 - 0,0
22.10.2018 09:00:00 16,4 14,6 21 11 41 22 WNW 1025,9 - 0,0
22.10.2018 08:00:00 16,3 14,3 24 13 35 19 WSW 1025,1 18 0,0
22.10.2018 07:00:00 15,6 13,8 16 9 25 14 SW 1025,0 - 0,0
22.10.2018 06:00:00 14,9 13,3 15 8 21 11 SW 1024,6 - 0,0
22.10.2018 05:00:00 14,6 12,5 13 7 24 13 SW 1024,6 16 0,0
22.10.2018 04:00:00 15,5 13,0 19 10 30 16 W 1024,7 - 0,0
22.10.2018 03:00:00 15,4 13,9 22 12 29 16 W 1024,5 - 0,0
22.10.2018 02:00:00 15,6 14,6 15 8 23 12 W 1024,6 7 0,0
22.10.2018 01:00:00 15,4 14,6 16 9 24 13 W 1024,4 - 0,0
22.10.2018 00:00:00 15,4 14,6 13 7 19 10 W 1024,4 - 0,2
21.10.2018 23:00:00 15,3 14,5 11 6 19 11 NNW 1024,1 - 0,0
21.10.2018 22:00:00 15,5 14,7 9 5 20 11 W 1023,7 - 0,0
21.10.2018 21:00:00 15,6 14,6 7 4 15 8 WNW 1023,4 - 0,0
21.10.2018 20:00:00 15,7 14,7 7 4 10 6 SW 1023,1 0,1 0,2
21.10.2018 19:00:00 15,9 14,8 4 2 14 7 NNW 1022,5 - 0,0
21.10.2018 18:00:00 16,4 15,1 7 4 13 7 NW 1022,5 - 0,0
21.10.2018 17:00:00 17,4 15,6 8 5 16 8 NW 1022,5 - 0,0
21.10.2018 16:00:00 18,0 15,1 9 5 13 7 NNW 1022,7 - 0,0
21.10.2018 15:00:00 19,2 14,9 6 3 13 7 N 1023,0 - 0,0
21.10.2018 14:00:00 18,5 14,8 5 3 13 7 NNE 1023,6 7 0,0
21.10.2018 13:00:00 17,4 14,7 8 5 13 7 NNE 1024,2 - 0,0
21.10.2018 12:00:00 15,8 14,5 4 2 8 4 E 1024,6 - 0,0
21.10.2018 11:00:00 15,1 14,1 2 1 6 3 NW 1024,7 0,3 0,0
21.10.2018 10:00:00 14,8 14,0 4 2 11 6 E 1024,8 - 0,0
21.10.2018 09:00:00 14,3 13,3 4 2 8 4 SSE 1024,4 - 0,0
21.10.2018 08:00:00 13,7 12,6 4 2 8 4 E 1024,2 0,5 0,0
21.10.2018 07:00:00 14,6 13,8 6 3 12 7 S 1024,2 - 0,0
21.10.2018 06:00:00 14,2 13,2 8 4 15 8 S 1024,4 - 0,0
21.10.2018 05:00:00 14,2 13,4 8 5 11 6 SSW 1024,6 0,5 0,0
21.10.2018 04:00:00 13,5 12,4 6 3 10 6 WSW 1024,7 - 0,0
21.10.2018 03:00:00 13,9 12,6 5 3 7 4 WSW 1024,5 - 0,0
21.10.2018 02:00:00 14,8 13,5 3 2 12 7 WSW 1025,0 4,0 0,0
21.10.2018 01:00:00 15,4 14,1 7 4 9 5 S 1025,5 - 0,0
21.10.2018 00:00:00 16,2 15,1 3 2 8 4 SSE 1026,0 - 0,0
20.10.2018 23:00:00 15,9 14,6 5 3 7 4 S 1025,8 4,0 0,0
20.10.2018 22:00:00 15,8 14,5 3 1 12 6 SSW 1025,7 - 0,0
20.10.2018 21:00:00 16,6 15,3 9 5 11 6 N 1025,3 - 0,0
20.10.2018 20:00:00 16,3 14,1 3 1 8 4 SSW 1024,8 6 0,0
20.10.2018 19:00:00 17,4 14,5 5 3 7 4 S 1024,4 - 0,0
20.10.2018 18:00:00 18,4 15,1 3 2 8 4 WNW 1024,6 - 0,0
20.10.2018 17:00:00 18,3 15,4 2 1 18 10 NE 1024,7 - 0,0
20.10.2018 16:00:00 18,3 15,4 12 7 20 11 NNW 1024,9 - 0,0
20.10.2018 15:00:00 18,6 15,7 14 8 25 13 W 1024,9 - 0,0
20.10.2018 14:00:00 18,7 15,2 17 9 21 11 W 1025,3 - 0,0
20.10.2018 13:00:00 19,2 15,9 11 6 16 9 W 1025,9 - 0,0
20.10.2018 12:00:00 18,4 14,7 10 5 21 11 WSW 1025,7 - 0,0
20.10.2018 11:00:00 17,7 14,6 12 6 19 10 WSW 1025,3 12 0,0
20.10.2018 10:00:00 16,9 14,0 10 6 15 8 WSW 1024,5 - 0,0
20.10.2018 09:00:00 16,3 13,8 9 5 14 8 S 1024,1 - 0,0
20.10.2018 08:00:00 15,9 13,2 12 6 16 9 SSW 1023,3 - 0,0
20.10.2018 07:00:00 16,0 13,1 11 6 23 13 SW 1022,8 - 0,0
20.10.2018 06:00:00 16,2 13,3 14 7 22 12 WSW 1022,8 - 0,0
20.10.2018 05:00:00 16,0 13,8 11 6 21 11 SSW 1022,4 - 0,0
20.10.2018 04:00:00 15,8 14,0 16 8 22 12 SW 1022,2 - 0,0
20.10.2018 03:00:00 15,8 14,0 13 7 21 11 SW 1022,2 - 0,0
20.10.2018 02:00:00 16,0 14,2 14 7 19 10 SW 1022,2 18 0,0
20.10.2018 01:00:00 16,0 14,5 10 5 20 11 SW 1022,1 - 0,0
20.10.2018 00:00:00 15,5 14,0 12 6 21 11 WSW 1022,3 - 0,0
19.10.2018 23:00:00 15,6 14,1 9 5 17 9 WSW 1022,4 18 0,0
19.10.2018 22:00:00 16,0 14,4 10 6 19 11 WSW 1021,9 - 0,0
19.10.2018 21:00:00 16,4 14,6 13 7 20 11 W 1021,4 - 0,0
19.10.2018 20:00:00 16,8 15,0 14 7 19 10 W 1020,7 18 0,0
19.10.2018 19:00:00 17,4 15,0 11 6 23 12 W 1020,0 - 0,0
19.10.2018 18:00:00 17,8 15,2 19 10 29 16 WNW 1019,7 - 0,0
19.10.2018 17:00:00 19,3 16,0 22 12 27 15 W 1019,2 - 0,0
19.10.2018 16:00:00 19,4 16,2 20 11 24 13 W 1019,2 - 0,0
19.10.2018 15:00:00 20,7 16,7 16 9 25 13 W 1019,2 - 0,0
19.10.2018 14:00:00 20,2 16,8 21 11 24 13 W 1019,6 8 0,0
19.10.2018 13:00:00 20,6 17,2 16 8 18 10 W 1019,8 - 0,0
19.10.2018 12:00:00 19,0 16,4 11 6 16 9 W 1019,5 - 0,0
19.10.2018 11:00:00 18,3 16,1 7 4 16 8 W 1019,4 8 0,0
19.10.2018 10:00:00 17,5 15,8 5 3 9 5 WSW 1018,8 - 0,0
19.10.2018 09:00:00 17,1 15,6 3 2 6 4 S 1017,9 - 0,0
19.10.2018 08:00:00 17,1 15,8 6 3 17 9 WSW 1017,6 - 0,0
19.10.2018 07:00:00 17,0 15,9 14 7 19 10 WNW 1017,6 - 0,0
19.10.2018 06:00:00 17,1 16,0 9 5 16 8 W 1018,0 - 0,0
19.10.2018 05:00:00 17,0 15,9 8 4 15 8 WNW 1017,7 8 0,0
19.10.2018 04:00:00 17,0 15,9 11 6 18 10 W 1017,4 - 0,0
19.10.2018 03:00:00 17,1 15,8 13 7 18 10 NW 1017,4 - 0,0
19.10.2018 02:00:00 17,2 15,9 13 7 21 11 WNW 1017,3 8 0,0
19.10.2018 01:00:00 17,2 15,9 13 7 22 12 W 1017,5 - 0,0
19.10.2018 00:00:00 17,1 15,8 13 7 17 9 W 1017,2 - 0,0
18.10.2018 23:00:00 17,1 15,8 8 4 11 6 W 1017,1 6 0,0
18.10.2018 22:00:00 16,9 15,6 7 4 14 8 WSW 1016,8 - 0,0
18.10.2018 21:00:00 17,3 15,8 8 4 13 7 WSW 1016,8 - 0,0
18.10.2018 20:00:00 17,4 15,9 9 5 13 7 W 1016,4 - 0,0
18.10.2018 19:00:00 17,5 15,8 10 6 14 8 WNW 1015,9 - 0,0
18.10.2018 18:00:00 17,7 15,7 13 7 16 9 W 1015,5 - 0,0
18.10.2018 17:00:00 18,0 15,6 15 8 22 12 W 1015,5 8 0,0
18.10.2018 16:00:00 18,9 15,6 16 9 18 10 W 1015,6 - 0,0
18.10.2018 15:00:00 19,9 15,5 9 5 10 6 W 1015,7 - 0,0
18.10.2018 14:00:00 18,9 15,2 5 3 8 5 NW 1016,1 4,0 0,0
18.10.2018 13:00:00 17,4 14,7 4 2 8 4 N 1016,5 - 0,0
18.10.2018 12:00:00 16,3 14,8 3 2 8 4 N 1016,8 - 0,0
18.10.2018 11:00:00 15,4 14,1 2 1 13 7 N 1016,6 4,0 0,0
18.10.2018 10:00:00 14,8 13,7 3 2 5 3 S 1016,3 - 0,0
18.10.2018 09:00:00 14,2 13,2 4 2 7 4 NNW 1015,8 - 0,0
18.10.2018 08:00:00 13,7 12,6 6 3 8 4 S 1015,5 18 0,0
18.10.2018 07:00:00 13,6 12,7 4 2 10 6 S 1015,4 - 0,0
18.10.2018 06:00:00 13,3 12,4 9 5 16 9 S 1015,2 - 0,0
18.10.2018 05:00:00 12,9 12,0 5 3 10 6 SSE 1015,2 - 0,0
18.10.2018 04:00:00 12,6 11,5 7 4 10 5 S 1015,3 - 0,2
18.10.2018 03:00:00 13,1 12,2 5 3 8 5 E 1015,7 - 0,0
18.10.2018 02:00:00 13,1 12,0 4 2 10 5 SSW 1015,7 18 0,0
18.10.2018 01:00:00 12,9 11,6 8 4 12 6 SW 1015,8 - 0,0
18.10.2018 00:00:00 13,4 12,1 4 2 8 4 SSW 1015,6 - 0,0
17.10.2018 23:00:00 13,5 12,1 5 3 6 4 W 1015,6 - 0,0
17.10.2018 22:00:00 14,8 13,5 3 2 10 6 SE 1015,1 - 0,0
17.10.2018 21:00:00 15,5 13,7 4 2 10 5 E 1015,1 - 0,0
17.10.2018 20:00:00 16,6 14,4 5 3 27 15 SSE 1014,7 - 0,0
17.10.2018 19:00:00 17,8 15,1 17 9 25 13 NE 1014,3 - 0,0
17.10.2018 18:00:00 19,2 15,1 9 5 14 7 NNE 1014,4 - 0,0
17.10.2018 17:00:00 19,1 14,4 8 5 18 10 N 1015,2 - 0,0
17.10.2018 16:00:00 18,1 14,4 13 7 19 10 NNE 1015,4 - 0,0
17.10.2018 15:00:00 18,5 14,0 15 8 19 11 N 1016,0 - 0,0
17.10.2018 14:00:00 18,2 14,1 13 7 17 9 N 1016,7 - 0,0
17.10.2018 13:00:00 19,9 15,1 7 4 9 5 N 1017,5 - 0,0
17.10.2018 12:00:00 18,2 14,5 5 3 9 5 N 1018,2 - 0,0

tt = Température de l'air
td = dewpoint
ff = Vitesse du vent
fx = gusts
dd = Direction du vent
ppp = reduced air pressure
vv = visibility
rr = Quantités de précipitations

stations d'obs. à proximité